Date String (YYYY-MM-DD hh:mm:ss) UTC,Instrument flags,absolute air pressure of the measurement (hPa),sample flow rate (lpm),inlet stack bypass flow (lpm),air temperature of the measurement (°C),ambient temperature measured by the external sensor (°C),aerosol sample conditioner tube jacket temperature (°C),OPC LED temperature (°C),internal box temperature (°C),relative humidity of the measurement (%),span deviation,mass concentration of particles derived from Lorenz-Mie calculation of OPC scattering (μg/m³),mass concentration of particles derived from Lorenz-Mie calculation of OPC scattering (μg/m³),mass concentration of particles derived from Lorenz-Mie calculation of OPC scattering (μg/m³)
DateTimeUTC,F1_M11,P_M11,Q1_M11,Q2_M11,T1_M11,T2_M11,T3_M11,T4_M11,T5_M11,U1_M11,ZSPAN_M11,X0_M11,X2_M11,X1_M11
2024-05-31 10:00:00,SystemResetWarning,0831.2,5.01,000.00,030.6,029.8,000.0,039.2,032.4,021.4,0000.0,0010.88,0003.86,0002.86
2024-05-31 10:01:00,SystemResetWarning,0831.3,5.01,000.00,030.6,029.8,000.0,039.2,032.4,021.2,0000.0,0010.96,0003.83,0002.81
2024-05-31 10:02:00,SystemResetWarning,0831.3,5.00,000.00,030.6,029.8,000.0,039.2,032.4,021.1,0000.0,0010.88,0003.78,0002.77
2024-05-31 10:03:00,SystemResetWarning,0831.3,4.99,000.00,030.6,029.8,000.0,039.2,032.3,021.1,0000.0,0010.39,0003.75,0002.75
2024-05-31 10:04:00,SystemResetWarning,0831.3,4.99,000.00,030.6,029.8,000.0,039.2,032.3,020.9,0000.0,0010.35,0003.78,0002.73
2024-05-31 10:05:00,SystemResetWarning,0831.3,5.01,000.00,030.6,029.7,000.0,039.2,032.3,020.9,0000.0,0010.37,0003.82,0002.70
2024-05-31 10:06:00,SystemResetWarning,0831.3,5.01,000.00,030.6,029.7,000.0,039.1,032.3,020.8,0000.0,0010.25,0003.81,0002.66
2024-05-31 10:07:00,SystemResetWarning,0831.3,5.00,000.00,030.6,029.7,000.0,039.1,032.3,020.8,0000.0,0010.44,0003.78,0002.64
2024-05-31 10:08:00,SystemResetWarning,0831.4,5.00,000.00,030.6,029.7,000.0,039.1,032.3,020.7,0000.0,0011.17,0003.75,0002.60
2024-05-31 10:09:00,SystemResetWarning,0831.4,4.99,000.00,030.6,029.7,000.0,039.1,032.3,020.8,0000.0,0011.35,0003.67,0002.56
2024-05-31 10:10:00,SystemResetWarning,0831.4,5.00,000.00,030.6,029.7,000.0,039.1,032.3,020.8,0000.0,0011.57,0003.64,0002.52
2024-05-31 10:11:00,SystemResetWarning,0831.4,5.00,000.00,030.6,029.7,000.0,039.1,032.3,020.6,0000.0,0011.51,0003.58,0002.47
2024-05-31 10:12:00,SystemResetWarning,0831.4,5.01,000.00,030.6,029.7,000.0,039.1,032.3,020.3,0000.0,0011.21,0003.51,0002.43
2024-05-31 10:13:00,SystemResetWarning,0831.4,5.01,000.00,030.6,029.7,000.0,039.1,032.3,020.3,0000.0,0010.64,0003.49,0002.42
2024-05-31 10:14:00,SystemResetWarning,0831.4,5.00,000.00,030.6,029.7,000.0,039.1,032.3,020.3,0000.0,0010.72,0003.49,0002.39
2024-05-31 10:15:00,SystemResetWarning,0831.5,4.99,000.00,030.6,029.7,000.0,039.1,032.3,020.4,0000.0,0010.25,0003.42,0002.34
2024-05-31 10:16:00,SystemResetWarning,0831.5,5.00,000.00,030.5,029.7,000.0,039.1,032.3,020.5,0000.0,0010.13,0003.38,0002.32
2024-05-31 10:17:00,SystemResetWarning,0831.5,5.00,000.00,030.6,029.7,000.0,039.1,032.3,020.6,0000.0,0010.42,0003.35,0002.29
2024-05-31 10:18:00,SystemResetWarning,0831.5,5.00,000.00,030.6,029.7,000.0,039.1,032.3,020.6,0000.0,0010.16,0003.37,0002.27
2024-05-31 10:19:00,SystemResetWarning,0831.5,5.00,000.00,030.5,029.7,000.0,039.1,032.3,020.8,0000.0,0009.53,0003.38,0002.27
2024-05-31 10:20:00,SystemResetWarning,0831.6,5.01,000.00,030.5,029.7,000.0,039.1,032.3,020.9,0000.0,0008.89,0003.38,0002.26
2024-05-31 10:21:00,SystemResetWarning,0831.6,5.00,000.00,030.5,029.7,000.0,039.1,032.3,020.8,0000.0,0009.42,0003.37,0002.25
2024-05-31 10:22:00,SystemResetWarning,0831.5,5.00,000.00,030.5,029.7,000.0,039.1,032.3,020.8,0000.0,0009.55,0003.39,0002.26
2024-05-31 10:23:00,SystemResetWarning,0831.6,5.00,000.00,030.5,029.7,000.0,039.1,032.3,020.7,0000.0,0009.53,0003.36,0002.26
2024-05-31 10:24:00,SystemResetWarning,0831.6,5.00,000.00,030.5,029.7,000.0,039.1,032.2,020.8,0000.0,0009.40,0003.35,0002.26
2024-05-31 10:25:00,SystemResetWarning,0831.5,5.00,000.00,030.5,029.7,000.0,039.1,032.2,020.8,0000.0,0009.86,0003.37,0002.27
2024-05-31 10:26:00,SystemResetWarning,0831.6,5.00,000.00,030.5,029.7,000.0,039.1,032.2,020.9,0000.0,0009.63,0003.39,0002.28
2024-05-31 10:27:00,SystemResetWarning,0831.6,5.00,000.00,030.5,029.7,000.0,039.1,032.3,020.8,0000.0,0009.44,0003.38,0002.29
2024-05-31 10:28:00,SystemResetWarning,0831.6,4.99,000.00,030.5,029.7,000.0,039.1,032.3,020.8,0000.0,0009.36,0003.40,0002.28
2024-05-31 10:29:00,SystemResetWarning,0831.6,5.01,000.00,030.5,029.6,000.0,039.1,032.2,020.7,0000.0,0008.98,0003.39,0002.28
2024-05-31 10:30:00,SystemResetWarning,0831.6,5.01,000.00,030.5,029.6,000.0,039.0,032.2,020.8,0000.0,0008.82,0003.36,0002.27
2024-05-31 10:31:00,SystemResetWarning,0831.6,5.01,000.00,030.5,029.6,000.0,039.0,032.2,020.7,0000.0,0009.04,0003.35,0002.27
2024-05-31 10:32:00,SystemResetWarning,0831.6,5.00,000.00,030.5,029.6,000.0,039.0,032.2,020.7,0000.0,0009.55,0003.36,0002.27
2024-05-31 10:33:00,SystemResetWarning,0831.6,5.00,000.00,030.5,029.6,000.0,039.0,032.2,020.6,0000.0,0008.89,0003.35,0002.26
2024-05-31 10:34:00,SystemResetWarning,0831.6,5.00,000.00,030.5,029.6,000.0,039.0,032.2,020.4,0000.0,0008.95,0003.37,0002.25
2024-05-31 10:35:00,SystemResetWarning,0831.7,5.00,000.00,030.5,029.6,000.0,039.0,032.1,020.7,0000.0,0010.02,0003.41,0002.23
2024-05-31 10:36:00,SystemResetWarning,0831.7,5.00,000.00,030.5,029.6,000.0,039.0,032.2,020.8,0000.0,0009.87,0003.41,0002.21
2024-05-31 10:37:00,SystemResetWarning,0831.7,4.99,000.00,030.4,029.6,000.0,039.0,032.2,020.7,0000.0,0009.80,0003.41,0002.21
2024-05-31 10:38:00,SystemResetWarning,0831.9,5.00,000.00,030.4,029.6,000.0,039.0,032.2,020.6,0000.0,0010.17,0003.41,0002.19
2024-05-31 10:39:00,SystemResetWarning,0831.8,5.01,000.00,030.4,029.6,000.0,039.0,032.1,020.7,0000.0,0010.30,0003.44,0002.19
2024-05-31 10:40:00,SystemResetWarning,0831.7,5.00,000.00,030.4,029.6,000.0,039.0,032.1,020.6,0000.0,0010.99,0003.50,0002.20
2024-05-31 10:41:00,SystemResetWarning,0831.7,5.00,000.00,030.4,029.5,000.0,039.0,032.2,020.5,0000.0,0011.41,0003.52,0002.19
2024-05-31 10:42:00,SystemResetWarning,0831.7,5.00,000.00,030.4,029.5,000.0,039.0,032.2,020.5,0000.0,0011.94,0003.51,0002.17
2024-05-31 10:43:00,SystemResetWarning,0831.7,5.00,000.00,030.4,029.5,000.0,039.0,032.1,020.5,0000.0,0012.01,0003.47,0002.16
2024-05-31 10:44:00,SystemResetWarning,0831.7,5.00,000.00,030.4,029.5,000.0,039.0,032.1,020.4,0000.0,0012.67,0003.42,0002.13
2024-05-31 10:45:00,SystemResetWarning,0831.7,4.99,000.00,030.4,029.5,000.0,039.0,032.1,020.4,0000.0,0013.07,0003.40,0002.11
2024-05-31 10:46:00,SystemResetWarning,0831.8,5.00,000.00,030.4,029.5,000.0,039.0,032.1,020.4,0000.0,0012.12,0003.37,0002.10
2024-05-31 10:47:00,SystemResetWarning,0831.9,5.00,000.00,030.4,029.5,000.0,039.0,032.1,020.3,0000.0,0011.99,0003.35,0002.09
2024-05-31 10:48:00,SystemResetWarning,0832.2,5.00,000.00,030.4,029.5,000.0,039.0,032.1,020.5,0000.0,0012.19,0003.34,0002.06
2024-05-31 10:49:00,SystemResetWarning,0831.8,5.00,000.00,030.4,029.5,000.0,038.9,032.1,020.5,0000.0,0011.99,0003.28,0002.04
2024-05-31 10:50:00,SystemResetWarning,0831.8,5.01,000.00,030.4,029.5,000.0,038.9,032.1,020.6,0000.0,0012.61,0003.25,0002.03
2024-05-31 10:51:00,SystemResetWarning,0831.8,5.00,000.00,030.4,029.5,000.0,038.9,032.1,020.5,0000.0,0012.60,0003.20,0002.01
2024-05-31 10:52:00,SystemResetWarning,0831.9,5.01,000.00,030.4,029.5,000.0,038.9,032.1,020.6,0000.0,0012.40,0003.16,0002.00
2024-05-31 10:53:00,SystemResetWarning,0831.9,5.01,000.00,030.4,029.5,000.0,038.9,032.1,020.7,0000.0,0013.15,0003.16,0001.99
2024-05-31 10:54:00,SystemResetWarning,0831.9,5.00,000.00,030.4,029.5,000.0,038.9,032.1,020.7,0000.0,0012.77,0003.19,0001.99
2024-05-31 10:55:00,SystemResetWarning,0832.0,5.00,000.00,030.4,029.5,000.0,038.9,032.1,020.7,0000.0,0012.63,0003.22,0002.00
2024-05-31 10:56:00,SystemResetWarning,0832.0,5.00,000.00,030.4,029.5,000.0,038.9,032.1,020.6,0000.0,0012.21,0003.23,0002.00
2024-05-31 10:57:00,SystemResetWarning,0832.0,5.00,000.00,030.3,029.5,000.0,038.9,032.1,020.6,0000.0,0012.16,0003.24,0001.99
2024-05-31 10:58:00,SystemResetWarning,0832.0,5.00,000.00,030.3,029.5,000.0,038.9,032.1,020.7,0000.0,0011.97,0003.22,0001.99
2024-05-31 10:59:00,SystemResetWarning,0832.0,5.00,000.00,030.3,029.5,000.0,038.9,032.1,020.7,0000.0,0011.53,0003.22,0002.00
